User: anonymous   Login
Location: Unspecified
(0.0000°N, 0.0000°E)
Time: 16:22:38
(UTC+00:00)
Language:

NUDT-PHONESAT - Orbit

View from above orbital plane
View from above orbital plane
View from above satellite
View from above satellite

Ground track
Ground track

The orbit data is extracted from the following two-line orbital elements,

1 40900U 15049B   18112.19570605  .00002995  00000-0  13763-3 0  9996
2 40900  97.4430 121.1002 0012309 219.2255 140.8090 15.21087166143401
Epoch (UTC): 22 April 2018 04:41:49
Eccentricity: 0.0012309
inclination: 97.4430°
perigee height: 494 km
apogee height: 511 km
right ascension of ascending node: 121.1002°
argument of perigee: 219.2255°
revolutions per day: 15.21087166
mean anomaly at epoch: 140.8090°
orbit number at epoch: 14340

The dashed part of the orbit path shows where the satellite is in the earth's shadow,  

DLR